Bookmark and Share
Track history (hours):
 

Sea Success

Last reported at 2014-Apr-19 05:33 UTC. Time now 2014-Apr-19 06:56 UTC.
Position N 22°17' E 114°10'.

Length 27 m.

Type: High speed craft. MMSI: 477995071.

NotesDate/timePositionNaut miles runAvg speedWind from/ knotsBaromVisibWave heightAir tempDewpointWater temp
2014-Apr-19 05:33N 22°17' E 114°10'1 0.4
2014-Apr-19 03:34N 22°18' E 114°09'1 0.6
2014-Apr-19 02:28N 22°18' E 114°08'1 0.8
2014-Apr-19 00:33N 22°17' E 114°10'2 2.0
2014-Apr-18 23:23N 22°19' E 114°09'1 1.6
2014-Apr-18 22:33N 22°18' E 114°09'0 0.0
2014-Apr-18 21:33N 22°18' E 114°09'0 0.0
2014-Apr-18 20:33N 22°18' E 114°09'0 0.0
2014-Apr-18 19:33N 22°18' E 114°09'0 0.0
2014-Apr-18 18:33N 22°18' E 114°09'0 0.0
2014-Apr-18 17:33N 22°18' E 114°09'0 0.0
2014-Apr-18 16:33N 22°18' E 114°09'0 0.0
2014-Apr-18 15:33N 22°18' E 114°09'0 0.0
2014-Apr-18 14:33N 22°18' E 114°09'1 0.6
2014-Apr-18 12:29N 22°18' E 114°08'1 0.7
2014-Apr-18 10:33N 22°17' E 114°10'2 1.1
2014-Apr-18 09:10N 22°18' E 114°08'6 0.2
2014-Apr-17 06:18N 22°17' E 114°02'1 0.4
2014-Apr-17 03:23N 22°16' E 114°02'4 0.9
2014-Apr-16 23:15N 22°17' E 114°05'0 0.0
2014-Apr-16 10:19N 22°17' E 114°05'4 1.2
2014-Apr-16 07:16N 22°15' E 114°02'8 4.4
2014-Apr-16 05:30N 22°17' E 114°10'0 0.0
2014-Apr-16 02:27N 22°17' E 114°10'2 1.2
2014-Apr-16 01:08N 22°18' E 114°08'2 1.1
2014-Apr-15 23:33N 22°17' E 114°10'1 1.1
2014-Apr-15 22:18N 22°18' E 114°08'1 0.1
2014-Apr-15 10:34N 22°17' E 114°10'7 6.6
2014-Apr-15 09:32N 22°17' E 114°02'7 2.2
2014-Apr-15 06:30N 22°17' E 114°09'7 1.8
2014-Apr-15 02:31N 22°16' E 114°02'7 7.6
2014-Apr-15 01:32N 22°17' E 114°10'0 0.1
2014-Apr-14 22:34N 22°17' E 114°09'0 0.0
2014-Apr-14 10:31N 22°17' E 114°09'1 0.1
2014-Apr-13 22:33N 22°18' E 114°08'1 0.1
2014-Apr-13 12:30N 22°18' E 114°08'6 5.0
2014-Apr-13 11:16N 22°16' E 114°02'810.6
2014-Apr-13 10:33N 22°17' E 114°10'2 1.5
2014-Apr-13 09:11N 22°18' E 114°07'2 2.2
2014-Apr-13 08:21N 22°17' E 114°09'0 0.0
2014-Apr-13 07:31N 22°17' E 114°09'0 0.1
2014-Apr-13 05:33N 22°17' E 114°10'2 1.5
2014-Apr-13 04:10N 22°18' E 114°07'1 2.2
2014-Apr-13 03:33N 22°18' E 114°09'1 1.3
2014-Apr-13 02:30N 22°18' E 114°07'2 0.8
2014-Apr-12 23:32N 22°20' E 114°09'1 1.4
2014-Apr-12 22:32N 22°18' E 114°09'0 0.0
2014-Apr-12 21:33N 22°18' E 114°09'0 0.1
2014-Apr-12 20:33N 22°18' E 114°09'0 0.1
2014-Apr-12 19:33N 22°18' E 114°09'0 0.0
2014-Apr-12 18:33N 22°18' E 114°09'0 0.0
2014-Apr-12 17:32N 22°18' E 114°09'0 0.1
2014-Apr-12 16:33N 22°18' E 114°09'0 0.1
2014-Apr-12 15:32N 22°18' E 114°09'1 0.8
2014-Apr-12 14:33N 22°18' E 114°09'1 0.7
2014-Apr-12 13:25N 22°18' E 114°08'1 0.7
2014-Apr-12 11:23N 22°17' E 114°10'2 1.5
2014-Apr-12 10:12N 22°18' E 114°08'2 1.1
2014-Apr-12 08:33N 22°17' E 114°10'0 0.0
2014-Apr-12 05:32N 22°17' E 114°10'0 0.0
2014-Apr-12 02:29N 22°17' E 114°10'2 1.1
2014-Apr-12 01:04N 22°18' E 114°08'2 1.0
2014-Apr-11 23:31N 22°17' E 114°10'1 0.9
2014-Apr-11 22:33N 22°18' E 114°09'1 0.1
2014-Apr-11 13:23N 22°18' E 114°08'1 0.7
2014-Apr-11 11:33N 22°17' E 114°10'0 0.1
2014-Apr-11 09:14N 22°17' E 114°09'0 0.2
2014-Apr-11 08:27N 22°17' E 114°10'0 0.0
2014-Apr-11 05:30N 22°17' E 114°10'8 3.7
2014-Apr-11 03:23N 22°16' E 114°01'8 8.7
2014-Apr-11 02:29N 22°17' E 114°10'8 8.1
2014-Apr-11 01:33N 22°15' E 114°02'8 3.8
2014-Apr-10 23:33N 22°17' E 114°10'2 1.3
2014-Apr-10 22:19N 22°18' E 114°08'6 0.8
2014-Apr-10 14:05N 22°16' E 114°01'6 9.9
2014-Apr-10 13:27N 22°18' E 114°08'2 0.8
2014-Apr-10 11:30N 22°17' E 114°10'2 1.5
2014-Apr-10 10:11N 22°18' E 114°08'2 1.1
2014-Apr-10 08:30N 22°17' E 114°10'8 3.7
2014-Apr-10 06:24N 22°16' E 114°01'8 9.0
2014-Apr-10 05:33N 22°17' E 114°10'0 0.0
2014-Apr-10 02:28N 22°17' E 114°10'8 7.4
2014-Apr-10 01:25N 22°16' E 114°01'8 4.0
2014-Apr-09 23:31N 22°17' E 114°10'1 0.8
2014-Apr-09 22:33N 22°18' E 114°09'1 0.1
2014-Apr-09 13:25N 22°18' E 114°08'1 0.8
2014-Apr-09 11:33N 22°17' E 114°10'5 4.1
2014-Apr-09 10:21N 22°17' E 114°04'5 4.4
2014-Apr-09 09:17N 22°17' E 114°09'0 0.2
2014-Apr-09 08:32N 22°17' E 114°10'  

Dump ship's entire track history

sailing weather and tide predictions

Sea Success — VRS4325 — position and weather